Norwood, MA

6:37 AM EDT on March 25, 2017 (GMT -0400)
Norwood Memorial

Weather History for KOWD - March, 2014

Change the Weather History Date:

Saturday, March 8, 2014

  Actual Average Record
Temperature  
Mean Temperature 36 °F -  
Max Temperature 53 °F 40 °F 69 °F (2012)
Min Temperature 19 °F 23 °F 7 °F (2007)
Degree Days  
Heating Degree Days 29    
Moisture  
Dew Point 23 °F    
Average Humidity 60    
Maximum Humidity 92    
Minimum Humidity 31    
Precipitation  
Precipitation 0.00 in - - ()
Sea Level Pressure  
Sea Level Pressure 29.80 in    
Wind  
Wind Speed 3 mph (NW)    
Max Wind Speed 13 mph    
Max Gust Speed -    
Visibility 10 miles    
Events      
Averages and records for this station are not official NWS values.
T = Trace of Precipitation, MM = Missing Value Source: NWS Daily Summary

Daily Weather History Graph

Daily Weather History Graph

Search for Another Location

Airport or City:

Trip Planner

Search our weather history database for the weather conditions in past years. The results will help you decide how hot, cold, wet, or windy it might be!

Date:

Astronomy

Mar. 08, 2014 Rise Set
Actual Time 6:08 AM EST 5:43 PM EST
Civil Twilight 5:40 AM EST 6:10 PM EST
Nautical Twilight 5:08 AM EST 6:43 PM EST
Astronomical Twilight 4:35 AM EST 7:16 PM EST
Moon 10:40 AM EST (3/8) 12:45 AM EST (3/8)
Length of Visible Light 12h 30m
Length of Day
11h 34m
First Quarter, 51% of the Moon is Illuminated
Mar 8
First Quarter
Mar 16
Full
Mar 23
Last Quarter
Mar 30
New
Apr 7
First Quarter

Hourly Weather History & Observations

Time (EST) Temp. Windchill Dew Point Humidity Pressure Visibility Wind Dir Wind Speed Gust Speed Precip Events Conditions
12:53 AM 26.1 °F - 24.1 °F 92% 29.93 in 10.0 mi Calm Calm - N/A   Mostly Cloudy
1:53 AM 25.0 °F - 23.0 °F 92% 29.88 in 10.0 mi Calm Calm - N/A   Clear
2:53 AM 23.0 °F - 21.0 °F 92% 29.86 in 10.0 mi Calm Calm - N/A   Clear
3:53 AM 19.9 °F - 18.0 °F 92% 29.85 in 10.0 mi Calm Calm - N/A   Clear
4:53 AM 19.9 °F - 18.0 °F 92% 29.84 in 8.0 mi Calm Calm - N/A   Clear
5:53 AM 19.0 °F - 17.1 °F 92% 29.83 in 8.0 mi Calm Calm - N/A   Clear
6:53 AM 21.0 °F - 19.0 °F 92% 29.82 in 8.0 mi Calm Calm - N/A   Clear
7:53 AM 28.9 °F - 25.0 °F 85% 29.82 in 10.0 mi Calm Calm - N/A   Clear
8:53 AM 36.0 °F - 21.9 °F 57% 29.81 in 10.0 mi Calm Calm - N/A   Clear
9:53 AM 42.1 °F - 23.0 °F 47% 29.79 in 10.0 mi Calm Calm - N/A   Partly Cloudy
10:53 AM 45.0 °F 41.8 °F 24.1 °F 44% 29.78 in 10.0 mi WNW 5.8 mph - N/A   Clear
11:53 AM 48.9 °F - 23.0 °F 36% 29.75 in 10.0 mi WNW 4.6 mph - N/A   Clear
12:53 PM 51.1 °F - 21.9 °F 32% 29.71 in 10.0 mi NW 3.5 mph - N/A   Scattered Clouds
1:53 PM 53.1 °F - 23.0 °F 31% 29.69 in 10.0 mi NW 5.8 mph - N/A   Clear
2:53 PM 52.0 °F - 23.0 °F 32% 29.69 in 10.0 mi WNW 12.7 mph - N/A   Scattered Clouds
3:53 PM 51.1 °F - 23.0 °F 33% 29.71 in 10.0 mi WNW 12.7 mph - N/A   Scattered Clouds
4:53 PM 50.0 °F - 25.0 °F 38% 29.71 in 10.0 mi NW 9.2 mph - N/A   Clear
5:53 PM 46.9 °F - 24.1 °F 41% 29.75 in 10.0 mi NW 5.8 mph - N/A   Clear
6:53 PM 46.9 °F - 24.1 °F 41% 29.78 in 10.0 mi North 9.2 mph - N/A   Mostly Cloudy
7:53 PM 43.0 °F 39.5 °F 25.0 °F 49% 29.81 in 10.0 mi North 5.8 mph - N/A   Clear
8:53 PM 39.9 °F 35.8 °F 26.1 °F 58% 29.83 in 10.0 mi NNW 5.8 mph - N/A   Scattered Clouds
9:53 PM 39.0 °F 32.8 °F 25.0 °F 57% 29.85 in 10.0 mi NNW 9.2 mph - N/A   Mostly Cloudy
10:53 PM 37.0 °F 32.4 °F 25.0 °F 62% 29.86 in 10.0 mi NNW 5.8 mph - N/A   Partly Cloudy
11:53 PM 36.0 °F 30.3 °F 24.1 °F 62% 29.86 in 10.0 mi NNW 6.9 mph - N/A   Clear